Location: Northam
(31.6525°S, 116.6655°E)
Time: 11:52:46
(UTC+08:00)

X-37B - Pass Details

Date: 20 January 2021
Orbit: 383 x 391 km, 45.0° (Epoch: 27 February)

Event Time Altitude Azimuth Distance (km) Brightness Sun altitude
Exits shadow 04:39:08 - 349° (N) 1,704 3.4 -10.0°
Reaches altitude 10° 04:40:04 10° 359° (N) 1,411 3.1 -9.8°
Maximum altitude 04:42:18 18° 44° (NE) 1,045 2.9 -9.4°
Drops below altitude 10° 04:44:33 10° 89° (E) 1,420 4.4 -9.0°
Sets 04:47:04 0° 109° (ESE) 2,281 6.5 -8.5°
